• In Czech Republic
  • List of Countries
  • For 7 days
  • Water Temperature
  • Satellite Maps
  • Weather Map
  • Weather Widgets
  • user-avatar
    Login

    Hourly Weather Megri

    Today, 26 September, Tuesday

    Time Temperature Precipitation Wind Pressure Humidity
    00:00 +15°C° 0.1 mm 2 mps 626 mmHg 73%
    01:00 +15°C° 0 mm 2 mps 626 mmHg 74%
    02:00 +14°C° 0 mm 2 mps 625 mmHg 76%
    03:00 +13°C° 0 mm 2 mps 625 mmHg 77%
    04:00 +13°C° 0 mm 2 mps 625 mmHg 77%
    05:00 +13°C° 0 mm 2 mps 625 mmHg 78%
    06:00 +12°C° 0 mm 1 mps 625 mmHg 78%
    07:00 +14°C° 0 mm 1 mps 625 mmHg 66%
    08:00 +16°C° 0 mm 1 mps 626 mmHg 54%
    09:00 +19°C° 0 mm 1 mps 627 mmHg 42%
    10:00 +21°C° 0 mm 1 mps 627 mmHg 37%
    11:00 +22°C° 0 mm 1 mps 627 mmHg 31%
    12:00 +23°C° 0 mm 1 mps 627 mmHg 25%
    13:00 +24°C° 0 mm 1 mps 627 mmHg 25%
    14:00 +24°C° 0 mm 1 mps 627 mmHg 24%
    15:00 +24°C° 0 mm 1 mps 626 mmHg 24%
    16:00 +23°C° 0 mm 2 mps 626 mmHg 30%
    17:00 +21°C° 0 mm 2 mps 626 mmHg 36%
    18:00 +19°C° 0 mm 2 mps 625 mmHg 42%
    19:00 +18°C° 0 mm 3 mps 625 mmHg 49%
    20:00 +17°C° 0 mm 3 mps 625 mmHg 56%
    21:00 +16°C° 0 mm 3 mps 625 mmHg 64%
    22:00 +16°C° 0 mm 3 mps 625 mmHg 67%
    23:00 +14°C° 0 mm 3 mps 625 mmHg 70%

    Tomorrow, 27 September, Wednesday

    Time Temperature Precipitation Wind Pressure Humidity
    00:00 +14°C° 0 mm 3 mps 624 mmHg 73%
    01:00 +14°C° 0 mm 3 mps 624 mmHg 74%
    02:00 +13°C° 0 mm 3 mps 624 mmHg 75%
    03:00 +14°C° 0 mm 2 mps 624 mmHg 76%
    04:00 +14°C° 0 mm 2 mps 624 mmHg 77%
    05:00 +13°C° 0 mm 2 mps 624 mmHg 78%
    06:00 +13°C° 0 mm 2 mps 624 mmHg 79%
    07:00 +15°C° 0 mm 2 mps 624 mmHg 69%
    08:00 +17°C° 0 mm 2 mps 625 mmHg 59%
    09:00 +18°C° 0 mm 2 mps 626 mmHg 49%
    10:00 +20°C° 0 mm 2 mps 626 mmHg 42%
    11:00 +21°C° 0 mm 2 mps 626 mmHg 36%
    12:00 +24°C° 0 mm 2 mps 626 mmHg 29%
    13:00 +24°C° 0 mm 2 mps 626 mmHg 28%
    14:00 +25°C° 0 mm 3 mps 626 mmHg 27%
    15:00 +25°C° 0 mm 3 mps 625 mmHg 26%
    16:00 +22°C° 0 mm 3 mps 625 mmHg 31%
    17:00 +21°C° 0 mm 3 mps 624 mmHg 37%
    18:00 +20°C° 0 mm 3 mps 624 mmHg 42%
    19:00 +18°C° 0 mm 4 mps 624 mmHg 49%
    20:00 +17°C° 0 mm 4 mps 624 mmHg 56%
    21:00 +15°C° 0 mm 4 mps 624 mmHg 62%
    22:00 +14°C° 0 mm 4 mps 624 mmHg 66%
    23:00 +14°C° 0 mm 4 mps 623 mmHg 70%

    Day after tomorrow, 28 September, Thursday

    Time Temperature Precipitation Wind Pressure Humidity
    00:00 +13°C° 0 mm 3 mps 623 mmHg 74%
    01:00 +13°C° 0 mm 3 mps 623 mmHg 76%
    02:00 +12°C° 0 mm 3 mps 623 mmHg 77%
    03:00 +12°C° 0 mm 3 mps 623 mmHg 78%
    04:00 +12°C° 0 mm 3 mps 623 mmHg 79%
    05:00 +11°C° 0 mm 3 mps 623 mmHg 80%
    06:00 +11°C° 0 mm 3 mps 623 mmHg 81%
    07:00 +12°C° 0 mm 3 mps 624 mmHg 75%
    08:00 +13°C° 0 mm 3 mps 625 mmHg 68%
    09:00 +16°C° 0 mm 3 mps 625 mmHg 61%
    10:00 +17°C° 0 mm 3 mps 626 mmHg 57%
    11:00 +18°C° 0 mm 3 mps 626 mmHg 52%
    12:00 +19°C° 0 mm 3 mps 626 mmHg 47%
    13:00 +19°C° 0 mm 3 mps 626 mmHg 47%
    14:00 +19°C° 0 mm 3 mps 625 mmHg 46%
    15:00 +19°C° 0 mm 4 mps 625 mmHg 46%
    16:00 +17°C° 0 mm 4 mps 625 mmHg 53%
    17:00 +15°C° 0 mm 4 mps 625 mmHg 60%
    18:00 +13°C° 0 mm 5 mps 624 mmHg 67%
    19:00 +13°C° 0 mm 5 mps 625 mmHg 69%
    20:00 +12°C° 0 mm 5 mps 625 mmHg 71%
    21:00 +10°C° 0 mm 5 mps 625 mmHg 73%
    22:00 +11°C° 0 mm 4 mps 625 mmHg 74%
    23:00 +11°C° 0 mm 4 mps 625 mmHg 75%

    29 September, Friday

    Time Temperature Precipitation Wind Pressure Humidity
    00:00 +11°C° 0 mm 4 mps 625 mmHg 75%
    01:00 +10°C° 0 mm 4 mps 625 mmHg 77%
    02:00 +10°C° 0 mm 3 mps 625 mmHg 78%
    03:00 +10°C° 0 mm 3 mps 625 mmHg 79%
    04:00 +10°C° 0 mm 3 mps 625 mmHg 80%
    05:00 +9°C° 0 mm 3 mps 625 mmHg 81%
    06:00 +9°C° 0 mm 3 mps 625 mmHg 81%
    07:00 +11°C° 0 mm 3 mps 625 mmHg 74%
    08:00 +12°C° 0 mm 3 mps 626 mmHg 67%
    09:00 +13°C° 0 mm 3 mps 626 mmHg 59%
    10:00 +16°C° 0 mm 3 mps 626 mmHg 52%
    11:00 +17°C° 0 mm 2 mps 626 mmHg 45%
    12:00 +19°C° 0 mm 2 mps 626 mmHg 39%
    13:00 +19°C° 0 mm 2 mps 626 mmHg 37%
    14:00 +20°C° 0 mm 2 mps 626 mmHg 35%
    15:00 +20°C° 0 mm 2 mps 625 mmHg 33%
    16:00 +19°C° 0 mm 2 mps 625 mmHg 38%
    17:00 +17°C° 0 mm 3 mps 625 mmHg 43%
    18:00 +16°C° 0 mm 3 mps 624 mmHg 48%
    19:00 +14°C° 0 mm 3 mps 624 mmHg 54%
    20:00 +13°C° 0 mm 3 mps 624 mmHg 61%
    21:00 +12°C° 0 mm 3 mps 623 mmHg 67%
    22:00 +12°C° 0 mm 3 mps 623 mmHg 70%
    23:00 +11°C° 0 mm 3 mps 623 mmHg 72%

    30 September, Saturday

    Time Temperature Precipitation Wind Pressure Humidity
    00:00 +11°C° 0 mm 3 mps 623 mmHg 74%
    01:00 +12°C° 0 mm 2 mps 622 mmHg 74%
    02:00 +10°C° 0 mm 2 mps 622 mmHg 74%
    03:00 +10°C° 0 mm 2 mps 622 mmHg 74%
    04:00 +10°C° 0 mm 2 mps 622 mmHg 74%
    05:00 +10°C° 0 mm 2 mps 622 mmHg 73%
    06:00 +10°C° 0 mm 2 mps 622 mmHg 73%
    07:00 +13°C° 0 mm 2 mps 623 mmHg 63%
    08:00 +15°C° 0 mm 2 mps 623 mmHg 53%
    09:00 +17°C° 0 mm 2 mps 624 mmHg 43%
    10:00 +19°C° 0.1 mm 3 mps 624 mmHg 38%
    11:00 +21°C° 0.1 mm 3 mps 624 mmHg 33%
    12:00 +22°C° 0.1 mm 4 mps 624 mmHg 28%
    13:00 +23°C° 0.1 mm 5 mps 624 mmHg 27%
    14:00 +23°C° 0.1 mm 6 mps 623 mmHg 27%
    15:00 +24°C° 0.1 mm 6 mps 623 mmHg 26%
    16:00 +22°C° 0.5 mm 5 mps 622 mmHg 32%
    17:00 +20°C° 0.5 mm 4 mps 622 mmHg 39%
    18:00 +18°C° 0.5 mm 2 mps 621 mmHg 45%
    19:00 +17°C° 0.1 mm 2 mps 621 mmHg 50%
    20:00 +16°C° 0.1 mm 2 mps 621 mmHg 54%
    21:00 +15°C° 0.1 mm 2 mps 621 mmHg 59%
    22:00 +15°C° 0 mm 2 mps 621 mmHg 63%
    23:00 +14°C° 0 mm 2 mps 621 mmHg 66%

    1 October, Sunday

    Time Temperature Precipitation Wind Pressure Humidity
    00:00 +13°C° 0 mm 1 mps 621 mmHg 69%
    01:00 +13°C° 0 mm 1 mps 622 mmHg 68%
    02:00 +13°C° 0 mm 1 mps 622 mmHg 67%
    03:00 +12°C° 0 mm 1 mps 622 mmHg 66%
    04:00 +12°C° 0 mm 1 mps 622 mmHg 63%
    05:00 +12°C° 0 mm 1 mps 622 mmHg 61%
    06:00 +12°C° 0 mm 1 mps 623 mmHg 58%
    07:00 +14°C° 0 mm 1 mps 623 mmHg 51%
    08:00 +16°C° 0 mm 2 mps 624 mmHg 45%
    09:00 +18°C° 0 mm 2 mps 625 mmHg 38%
    10:00 +19°C° 0 mm 2 mps 625 mmHg 35%
    11:00 +20°C° 0 mm 3 mps 625 mmHg 31%
    12:00 +21°C° 0 mm 3 mps 626 mmHg 28%
    13:00 +21°C° 0 mm 3 mps 625 mmHg 26%
    14:00 +22°C° 0 mm 3 mps 625 mmHg 25%
    15:00 +22°C° 0 mm 3 mps 625 mmHg 23%
    16:00 +21°C° 0 mm 2 mps 624 mmHg 26%
    17:00 +19°C° 0 mm 2 mps 624 mmHg 30%
    18:00 +19°C° 0 mm 1 mps 624 mmHg 33%
    19:00 +18°C° 0 mm 1 mps 624 mmHg 38%
    20:00 +16°C° 0 mm 2 mps 623 mmHg 44%
    21:00 +15°C° 0 mm 2 mps 623 mmHg 49%
    22:00 +15°C° 0 mm 2 mps 623 mmHg 53%
    23:00 +14°C° 0 mm 2 mps 623 mmHg 56%
    Show more